C/2018 U1 ( Lemmon )

Japanese version
Home page
Updated on March 7, 2023

---------------------------------------------------------------------

* Profile

Discovery Date October 27, 2018
Magnitude 20.0 mag
Discoverer R. A. Kowalski (Mount Lemmon Survey)

* Pictures

* Orbital Elements

Epoch 2023 Feb. 25.0 TT = JDT 2460000.5
T 2021 Nov. 3.14422 TT                                  Rudenko
q   4.9928487            (2000.0)            P               Q
z  -0.0003051      Peri.  180.47443     -0.25302727     -0.30216575
 +/-0.0000004      Node    75.49192     -0.88447027     +0.45719603
e   1.0015235      Incl.  108.31687     -0.39203259     -0.83646139
>From 2410 observations 2018 Oct. 27-2023 Feb. 25, mean residual 0".5.

* Finding Charts

* Magnitudes Graph

        m1 = 4.5 + 5 log d + 10.0 log r

---------------------------------------------------------------------

The orbital elements are published on M.P.E.C. 2023-D72.
The charts are made with StellaNavigator Ver.10 (AstroArts).
The magnitudes graphs are made with Comet for Windows.

---------------------------------------------------------------------

Copyright(C) Seiichi Yoshida (comet@aerith.net). All rights reserved.